Location: Cheyres
(46.8153°N, 6.7877°E)
Time: 11:41:15
(UTC+00:00)

Gbstr 26 Del rocket - Pass Details

Date: 24 September 2021
Orbit: 492 x 1263 km, 51.8° (Epoch: 18 October)

Event Time Altitude Azimuth Distance (km) Brightness Sun altitude
Rises 23:08:34 0° 271° (W) 4,128 7.3 -43.9°
Enters shadow 23:08:39 - 271° (W) 4,100 7.3 -43.9°
Exits shadow 23:28:36 - 78° (ENE) 3,571 7.0 -44.0°
Sets 23:30:00 0° 80° (E) 4,031 7.3 -44.0°
